Regional Weather Roundup
Issued by NWS

Home | Current Version | Previous Version | Graphics & Text | Print | Product List | Glossary On
Versions: 1 2 3 4 5 6 7 8 9 10 11 12 13 14 15 16 17 18 19 20 21 22 23 24 25 26 27 28 29 30 31 32 33 34 35 36 37 38 39 40 41 42 43 44 45 46 47 48 49 50
000
ASUS43 KFSD 291802
RWRSD

WEATHER ROUNDUP FOR SOUTH DAKOTA
NATIONAL WEATHER SERVICE SIOUX FALLS SD
100 PM CDT FRI APR 29 2016

NOTE: "FAIR" INDICATES FEW OR NO CLOUDS BELOW 12,000 FEET WITH NO
SIGNIFICANT WEATHER AND/OR OBSTRUCTIONS TO VISIBILITY.


SDZ001>005-009-010-012>017-291900-
NORTHWEST AND NORTH CENTRAL SOUTH DAKOTA

CITY           SKY/WX    TMP DP  RH WIND       PRES   REMARKS
BUFFALO          N/A     48  30  49 E17       30.03F
FAITH            N/A     50  35  56 E12       30.10F
MOBRIDGE       SUNNY     58  37  45 E9        30.09S
$$

SDZ012>016-024>037-041>051-057-063-072>074-291900-
SOUTHWEST AND SOUTH CENTRAL SOUTH DAKOTA

CITY           SKY/WX    TMP DP  RH WIND       PRES   REMARKS
RAPID CTY ARPT CLOUDY    41  36  82 N5        30.08F
PIERRE         CLOUDY    51  36  56 E17G24    30.09F
CUSTER         CLOUDY    32  30  92 NE12      30.00F FOG     WCI  23
ELLSWORTH AFB  CLOUDY    41  36  81 VRB3      30.07
PHILIP         CLOUDY    49  36  61 NE17G24   30.07F
PINE RIDGE     CLOUDY    41  36  82 NE8       30.05R
WINNER         CLOUDY    42  37  82 NE13      30.10R
$$

SDZ004>011-016>023-039-040-291900-
NORTHEAST SOUTH DAKOTA

CITY           SKY/WX    TMP DP  RH WIND       PRES   REMARKS
ABERDEEN       MOSUNNY   56  37  49 E6        30.12F
WATERTOWN      MOSUNNY   53  38  56 E12       30.13S
BROOKINGS      CLOUDY    47  38  71 E10       30.13R
SISSETON         N/A     57  38  48 SE9       30.13S
$$

SDZ017-020-022-023-036>040-048>070-291900-
SOUTHEAST SOUTH DAKOTA

CITY           SKY/WX    TMP DP  RH WIND       PRES   REMARKS
SIOUX FALLS    CLOUDY    46  39  76 E15       30.13F
HURON          CLOUDY    52  38  58 E15G23    30.11F
MITCHELL       CLOUDY    48  41  76 E15       30.13S
YANKTON        CLOUDY    43  37  81 E13       30.11F
$$

ABBREVIATIONS USED IN REMARKS
   TC - TEMPERATURE IN CELSIUS
  WCI - WIND CHILL INDEX
   HX - HEAT INDEX
  VSB - VISIBILITY




USA.gov is the U.S. government's official web portal to all federal, state and local government web resources and services.